logo
App data

Gurgamoth

Gurgamoth is a flying fighting game where the level is your weapon. Each match is lightning quick and focuses on intense flying combat and getting in your opponent's head. The controls are simple, but the mechanics and interesting levels bring out the game’s depth.
Store | Hub | SteamDB | Site
Developer: Galvanic Games Publisher: Galvanic Games
Genre: Action, Indie
Languages: English, French, Italian, German, Spanish - Spain, Portuguese - Brazil, Russian
Tags: Action (24), Indie (23), Local Multiplayer (17), Competitive (13), Fighting (10)
Category: Single-player, Multi-player, PvP, Shared/Split Screen PvP, Shared/Split Screen, Full controller support, Steam Trading Cards, Remote Play Together
Release date: Feb 16, 2016
Price: $9.99
Old userscore: 82% Owners: 20,000 .. 50,000
Followers: 751
Peak concurrent players yesterday: 2
YouTube stats: 4 views and 2 comments for top 50 videos uploaded last week, 0 new videos uploaded yesterday.
Playtime total: 03:20 (average) 04:39 (median)

Steam Spy is still in beta, so expect major bugs.

Owners data:

Access restricted.

This feature is only available to users with special access rights. Sorry.

If you want to proceed, you need to register or log in first and then back Steam Spy on Patreon. Look for Indie or Pro pledge.

Don't forget to use the same email as on Steam Spy!

Audience in 2 weeks:

Access restricted.

This feature is only available to users with special access rights. Sorry.

If you want to proceed, you need to register or log in first and then back Steam Spy on Patreon. Look for Indie or Pro pledge.

Don't forget to use the same email as on Steam Spy!

Peak daily concurrent players:

CCU data courtesy of SteamDB. Used with permission.

Hourly concurrent players:

Daily Twitch stats:

Hourly Twitch stats:

Followers over time

Access restricted.

This feature is only available to users with special access rights. Sorry.

If you want to proceed, you need to register or log in first and then back Steam Spy on Patreon. Look for Indie or Pro pledge.

Don't forget to use the same email as on Steam Spy!

Views for top 50 videos on YouTube for this game:

Games similar to this one:

# Game Release date
Price
Score rank
(Userscore / Metascore)
Owners
Players
Playtime (Median)
1 Rise & Shine Jan 13, 2017 $14.99N/A (N/A)50,000 .. 100,0000%00:00 (00:00)
2 Dustoff Heli Rescue Mar 6, 2015 $3.99N/A (N/A)20,000 .. 50,0000%00:00 (00:00)
3 BattleLore: Command Nov 25, 2014 $6.99N/A (N/A)0 .. 20,0000%00:00 (00:00)
4 HitBox Jan 30, 2017 FreeN/A (N/A)20,000 .. 50,0000%00:00 (00:00)
5 Hyperspace Pinball Sep 30, 2015 $2.99N/A (N/A)0 .. 20,0000%00:00 (00:00)
6 Samudai Feb 9, 2015 $0.99N/A (N/A)50,000 .. 100,0000%00:00 (00:00)
7 Burstfire Sep 24, 2015 N/AN/A (N/A)50,000 .. 100,0000%00:00 (00:00)
8 Synonymy Dec 12, 2014 $1.99N/A (N/A)20,000 .. 50,0000%00:00 (00:00)
9 Supercharged Robot VULKAISER Jun 4, 2015 $4.99N/A (N/A)20,000 .. 50,0000%00:00 (00:00)
10 Tiamat X May 29, 2015 $1.99N/A (N/A)20,000 .. 50,0000%00:00 (00:00)
11 Locoland Nov 22, 2003 $4.99N/A (N/A)0 .. 20,0000%00:00 (00:00)
12 Gratuitous Space Battles 2 Apr 16, 2015 $9.99N/A (N/A)20,000 .. 50,0000%00:00 (00:00)
13 King of Dragon Pass Jul 28, 2015 $11.99N/A (N/A)20,000 .. 50,0000%00:00 (00:00)
14 David. Mar 14, 2014 $1.99N/A (N/A)50,000 .. 100,0000%00:00 (00:00)
15 Urban Empire Jan 20, 2017 $29.99N/A (N/A/62%)100,000 .. 200,0000%00:00 (00:00)
16 The Bluecoats: North vs South May 10, 2012 $4.99N/A (N/A)100,000 .. 200,0000%00:00 (00:00)
17 Stay Dead Evolution Feb 4, 2015 $5.99N/A (N/A)20,000 .. 50,0000%00:00 (00:00)
18 Ku: Shroud of the Morrigan Mar 17, 2014 $4.99N/A (N/A)20,000 .. 50,0000%00:00 (00:00)
19 Making History: The Great War Jan 29, 2015 $29.99N/A (N/A)20,000 .. 50,0000%00:00 (00:00)
20 Shadow Blade: Reload Aug 10, 2015 $9.99N/A (N/A/70%)20,000 .. 50,0000%00:00 (00:00)
21 Abalone Apr 23, 2014 $6.99N/A (N/A)20,000 .. 50,0000%00:00 (00:00)
22 The Last Federation Apr 18, 2014 $19.99N/A (N/A/72%)50,000 .. 100,0000%00:00 (00:00)
23 Devil's Dare 悪魔の挑戦 Oct 21, 2014 $12.99N/A (N/A)20,000 .. 50,0000%00:00 (00:00)
24 Z Steel Soldiers Aug 1, 2014 $4.41N/A (N/A)50,000 .. 100,0000%00:00 (00:00)
25 Battlepillars Gold Edition Apr 28, 2014 $4.99N/A (N/A)20,000 .. 50,0000%00:00 (00:00)
26 Z Jul 4, 2014 $6.99N/A (N/A)100,000 .. 200,0000%00:00 (00:00)
27 Strategic War in Europe Mar 21, 2014 $1.49N/A (N/A)20,000 .. 50,0000%00:00 (00:00)
28 Battle Group 2 Jun 13, 2014 $7.99N/A (N/A)50,000 .. 100,0000%00:00 (00:00)
29 Super Chibi Knight Jun 24, 2015 $4.99N/A (N/A)20,000 .. 50,0000%00:00 (00:00)
30 Albedo: Eyes from Outer Space Apr 10, 2015 $14.99N/A (N/A/66%)20,000 .. 50,0000%00:00 (00:00)
31 Battleplan: American Civil War Jul 4, 2014 $9.99N/A (N/A/66%)100,000 .. 200,0000%00:00 (00:00)
32 RIVE: Wreck, Hack, Die, Retry! Sep 13, 2016 $14.99N/A (N/A)100,000 .. 200,0000%00:00 (00:00)
33 Meltdown Jun 5, 2014 $6.99N/A (N/A)100,000 .. 200,0000%00:00 (00:00)
34 Interplanetary May 12, 2015 N/AN/A (N/A)100,000 .. 200,0000%00:00 (00:00)
35 The Haunted: Hells Reach Oct 24, 2011 $8.99N/A (N/A/51%)50,000 .. 100,0000%00:00 (00:00)
36 Smithy Jun 3, 2016 $0.99N/A (N/A)20,000 .. 50,0000%00:00 (00:00)
37 Patrician IV Sep 17, 2010 $14.99N/A (N/A/66%)100,000 .. 200,0000%00:00 (00:00)
38 ROD: Revolt Of Defense Aug 12, 2016 $0.99N/A (N/A)20,000 .. 50,0000%00:00 (00:00)
39 Dead Rising 2: Off the Record Oct 11, 2011 $19.99N/A (N/A/66%)200,000 .. 500,0000%00:00 (00:00)
40 Syrian Warfare Feb 21, 2017 $13.99N/A (N/A)200,000 .. 500,0000%00:00 (00:00)
41 Dungeons Feb 10, 2011 $9.99N/A (N/A/65%)200,000 .. 500,0000%00:00 (00:00)
42 Battle Time Sep 29, 2016 $0.99N/A (N/A)50,000 .. 100,0000%00:00 (00:00)
43 Star Wolves 3: Civil War Mar 2, 2010 $4.99N/A (N/A)100,000 .. 200,0000%00:00 (00:00)
44 Beasts Battle Jun 15, 2016 $1.99N/A (N/A)20,000 .. 50,0000%00:00 (00:00)
45 A Game of Thrones - Genesis Sep 29, 2011 $9.99N/A (N/A)100,000 .. 200,0000%00:00 (00:00)
46 BitMaster Oct 12, 2016 $2.99N/A (N/A)100,000 .. 200,0000%00:00 (00:00)
47 Theatre of War 2: Africa 1943 Apr 24, 2009 $4.99N/A (N/A/63%)50,000 .. 100,0000%00:00 (00:00)
48 Mr. Shifty Apr 13, 2017 $14.99N/A (N/A)100,000 .. 200,0000%00:00 (00:00)
49 Power of Defense Aug 4, 2010 $9.99N/A (N/A)0 .. 20,0000%00:00 (00:00)
50 Toadled Sep 22, 2016 $0.99N/A (N/A)50,000 .. 100,0000%00:00 (00:00)
51 Theatre of War 2: Kursk 1943 Mar 9, 2010 $4.99N/A (N/A)50,000 .. 100,0000%00:00 (00:00)
52 Woodle Tree 2: Worlds Sep 16, 2016 $3.99N/A (N/A)20,000 .. 50,0000%00:00 (00:00)
53 Age of Wonders Oct 2010 $5.99N/A (N/A)100,000 .. 200,0000%00:00 (00:00)
54 Death's Hangover Jan 20, 2017 $4.99N/A (N/A)20,000 .. 50,0000%00:00 (00:00)
55 Armada 2526 Jun 10, 2010 $14.99N/A (N/A/66%)0 .. 20,0000%00:00 (00:00)
56 Sorcerer King: Rivals Sep 22, 2016 $19.99N/A (N/A)20,000 .. 50,0000%00:00 (00:00)
57 Age of Wonders Shadow Magic Oct 2010 $9.99N/A (N/A/82%)100,000 .. 200,0000%00:00 (00:00)
58 Mysterium: A Psychic Clue Game Jan 12, 2017 $6.99N/A (N/A)50,000 .. 100,0000%00:00 (00:00)
59 RISK: Factions Mar 8, 2011 $9.99N/A (N/A/77%)100,000 .. 200,0000%00:00 (00:00)
60 Extravaganza Rising Jul 21, 2016 N/AN/A (N/A)20,000 .. 50,0000%00:00 (00:00)
61 Monday Night Combat Jan 24, 2011 $4.99N/A (N/A/82%)200,000 .. 500,0000%00:00 (00:00)
62 Western 1849 Reloaded Feb 10, 2017 $3.99N/A (N/A)0 .. 20,0000%00:00 (00:00)
63 Greed Corp Dec 10, 2010 $9.99N/A (N/A/76%)200,000 .. 500,0000%00:00 (00:00)
64 Bulletstorm: Full Clip Edition Apr 7, 2017 $39.99N/A (N/A/76%)200,000 .. 500,0000%00:00 (00:00)
65 Civil War: Battle of Petersburg Feb 8, 2017 $0.99N/A (N/A)20,000 .. 50,0000%00:00 (00:00)
66 Sword of the Stars II: Enhanced Edition Nov 30, 2012 $19.99N/A (N/A/65%)100,000 .. 200,0000%00:00 (00:00)
67 Atom Zombie Smasher Mar 14, 2011 $9.99N/A (N/A/75%)200,000 .. 500,0000%00:00 (00:00)
68 Zombie Camp Jul 31, 2016 N/AN/A (N/A)0 .. 20,0000%00:00 (00:00)
69 Super Furball May 13, 2014 $3.99N/A (N/A)0 .. 20,0000%00:00 (00:00)
70 Commander Cool 2 Dec 17, 2015 $2.99N/A (N/A)50,000 .. 100,0000%00:00 (00:00)
71 N2O: Nitrous Oxide Jun 29, 2015 $4.99N/A (N/A)0 .. 20,0000%00:00 (00:00)
72 Cuban Missile Crisis May 6, 2005 $4.99N/A (N/A)20,000 .. 50,0000%00:00 (00:00)
73 Redemption: Saints And Sinners Nov 18, 2016 $0.99N/A (N/A)50,000 .. 100,0000%00:00 (00:00)
74 Interloper May 21, 2015 FreeN/A (N/A/77%)20,000 .. 50,0000%00:00 (00:00)
75 TASTEE: Lethal Tactics May 10, 2016 $14.99N/A (N/A)20,000 .. 50,0000%00:00 (00:00)
76 Kick Ass Commandos Nov 17, 2016 $9.99N/A (N/A)20,000 .. 50,0000%00:00 (00:00)
77 Skyshine's BEDLAM Sep 16, 2015 $19.99N/A (N/A/67%)50,000 .. 100,0000%00:00 (00:00)
78 Assassin’s Creed Chronicles: India Jan 12, 2016 $9.99N/A (N/A)50,000 .. 100,0000%00:00 (00:00)
79 htoL#NiQ: The Firefly Diary May 18, 2016 $4.99N/A (N/A)20,000 .. 50,0000%00:00 (00:00)
80 Nightside Apr 2, 2015 $4.99N/A (N/A)20,000 .. 50,0000%00:00 (00:00)
81 Gnumz: Masters of Defense Dec 21, 2015 $4.99N/A (N/A)200,000 .. 500,0000%00:00 (00:00)
82 Heaven Forest NIGHTS Mar 14, 2017 $0.99N/A (N/A)500,000 .. 1,000,0000%00:00 (00:00)
83 Spooky Cats Jun 4, 2015 $2.99N/A (N/A)20,000 .. 50,0000%00:00 (00:00)
84 Solar Shifter EX Sep 11, 2015 $4.99N/A (N/A)20,000 .. 50,0000%00:00 (00:00)
85 Bombshell Jan 29, 2016 $34.99N/A (N/A/43%)50,000 .. 100,0000%00:00 (00:00)
86 Enemy Mind Jun 6, 2014 $9.99N/A (N/A)100,000 .. 200,0000%00:00 (00:00)
87 The Fall May 30, 2014 $9.99N/A (N/A/76%)200,000 .. 500,0000%00:00 (00:00)
88 Avoid - Sensory Overload Apr 8, 2014 $4.99N/A (N/A)20,000 .. 50,0000%00:00 (00:00)
89 Royal Defense Nov 6, 2014 $4.99N/A (N/A)100,000 .. 200,0000%00:00 (00:00)
90 Hard Truck Apocalypse: Arcade / Ex Machina: Arcade May 24, 2007 $4.99N/A (N/A)20,000 .. 50,0000%00:00 (00:00)
91 Spice Road Apr 24, 2014 $19.99N/A (N/A)0 .. 20,0000%00:00 (00:00)
92 Rex Rocket Aug 5, 2014 $4.99N/A (N/A)20,000 .. 50,0000%00:00 (00:00)
93 Merchants of Kaidan Nov 10, 2014 $1.49N/A (N/A)100,000 .. 200,0000%00:00 (00:00)
94 Perimeter: Emperor's Testament Aug 29, 2006 $3.99N/A (N/A/72%)20,000 .. 50,0000%00:00 (00:00)
95 Hero Generations Apr 10, 2015 $5.99N/A (N/A)20,000 .. 50,0000%00:00 (00:00)
96 Perimeter May 21, 2004 $3.99N/A (N/A/77%)20,000 .. 50,0000%00:00 (00:00)
97 Viktor Jun 13, 2014 $7.99N/A (N/A)20,000 .. 50,0000%00:00 (00:00)
98 Aggression: Europe Under Fire May 10, 2007 $9.99N/A (N/A)50,000 .. 100,0000%00:00 (00:00)
99 Space Colony: Steam Edition Apr 30, 2015 $14.99N/A (N/A/74%)100,000 .. 200,0000%00:00 (00:00)
100 Marauder Sep 10, 2009 $9.99N/A (N/A)50,000 .. 100,0000%00:00 (00:00)
101 The Entente Gold Aug 11, 2003 $1.99N/A (N/A)50,000 .. 100,0000%00:00 (00:00)
102 Collapse Sep 25, 2008 $19.99N/A (N/A)50,000 .. 100,0000%00:00 (00:00)
103 Delve Deeper Sep 24, 2010 $4.99N/A (N/A)50,000 .. 100,0000%00:00 (00:00)
104 Defence to death May 11, 2017 $5.99N/A (N/A)20,000 .. 50,0000%00:00 (00:00)
105 Warp Mar 21, 2012 $9.99N/A (N/A)20,000 .. 50,0000%00:00 (00:00)
106 Fantasy Wars Aug 6, 2010 $4.99N/A (N/A/67%)50,000 .. 100,0000%00:00 (00:00)
107 Sudden Strike 2 Gold Aug 30, 2002 $5.99N/A (N/A)50,000 .. 100,0000%00:00 (00:00)
108 Dungeons - The Dark Lord Sep 27, 2011 $19.99N/A (N/A/72%)100,000 .. 200,0000%00:00 (00:00)
109 Men of War: Vietnam Sep 8, 2011 $7.99N/A (N/A/68%)200,000 .. 500,0000%00:00 (00:00)
110 Disciples III - Resurrection Oct 11, 2011 $14.99N/A (N/A/63%)100,000 .. 200,0000%00:00 (00:00)
111 Carrier Command: Gaea Mission Sep 28, 2012 $32.99N/A (N/A/60%)200,000 .. 500,0000%00:00 (00:00)
112 Impire Feb 14, 2013 $19.99N/A (N/A/45%)100,000 .. 200,0000%00:00 (00:00)
113 Star Ruler Sep 20, 2010 $7.99N/A (N/A)50,000 .. 100,0000%00:00 (00:00)
114 Hegemony Gold: Wars of Ancient Greece Mar 30, 2012 $14.99N/A (N/A)20,000 .. 50,0000%00:00 (00:00)
115 Pride of Nations Jun 8, 2011 $19.99N/A (N/A/70%)20,000 .. 50,0000%00:00 (00:00)
116 Men of War: Condemned Heroes Apr 12, 2012 $7.99N/A (N/A/57%)100,000 .. 200,0000%00:00 (00:00)
117 Sengoku Sep 15, 2011 $9.99N/A (N/A/70%)100,000 .. 200,0000%00:00 (00:00)
118 Stellar Impact Apr 12, 2012 $9.99N/A (N/A/74%)50,000 .. 100,0000%00:00 (00:00)
119 A.R.E.S.: Extinction Agenda Jan 20, 2011 $4.99N/A (N/A/68%)50,000 .. 100,0000%00:00 (00:00)
120 Swords and Soldiers HD Dec 2, 2010 $9.99N/A (N/A)200,000 .. 500,0000%00:00 (00:00)
121 Gatling Gears Aug 30, 2011 $9.99N/A (N/A)20,000 .. 50,0000%00:00 (00:00)
122 Incandescent Jun 30, 2015 $0.99N/A (N/A)20,000 .. 50,0000%00:00 (00:00)
123 Explosionade Sep 23, 2015 $3.99N/A (N/A)0 .. 20,0000%00:00 (00:00)
124 Lost in Paradise Aug 20, 2015 $2.99N/A (N/A)20,000 .. 50,0000%00:00 (00:00)
125 Defend The Highlands Nov 6, 2015 $9.99N/A (N/A)100,000 .. 200,0000%00:00 (00:00)
126 Kidnapped Aug 4, 2015 $2.99N/A (N/A)100,000 .. 200,0000%00:00 (00:00)
127 Superstatic Sep 15, 2015 $4.99N/A (N/A)0 .. 20,0000%00:00 (00:00)
128 E.T. Armies Mar 3, 2016 $14.99N/A (N/A/54%)50,000 .. 100,0000%00:00 (00:00)
129 Island Defense Jul 23, 2015 $1.99N/A (N/A)50,000 .. 100,0000%00:00 (00:00)
130 Cross of the Dutchman Sep 10, 2015 $8.99N/A (N/A/59%)20,000 .. 50,0000%00:00 (00:00)
131 Tiki Man Jun 4, 2015 $2.99N/A (N/A)50,000 .. 100,0000%00:00 (00:00)
132 Zombie Party Jun 10, 2016 $9.99N/A (N/A)100,000 .. 200,00025%03:56 (01:18)
133 Biodrone Battle Jul 16, 2015 $1.99N/A (N/A)50,000 .. 100,0000%00:00 (00:00)
134 Heavy Fire: Shattered Spear Oct 23, 2015 $3.99N/A (N/A)0 .. 20,0000%00:00 (00:00)
135 Tcheco in the Castle of Lucio Jun 22, 2015 $0.99N/A (N/A)50,000 .. 100,0000%00:00 (00:00)
136 Infection: Humanity's Last Gasp May 26, 2016 $9.99N/A (N/A)0 .. 20,0000%00:00 (00:00)
137 Valley Aug 24, 2016 $14.99N/A (N/A)200,000 .. 500,0000%00:00 (00:00)
138 Weapon of Choice Sep 23, 2015 $4.99N/A (N/A)0 .. 20,0000%00:00 (00:00)
139 Heavy Fire: Afghanistan Aug 15, 2014 $0.89N/A (N/A)50,000 .. 100,0000%00:00 (00:00)
140 Victory At Sea Aug 8, 2014 $24.99N/A (N/A)50,000 .. 100,0000%00:00 (00:00)
141 Battle Academy 2: Eastern Front Sep 12, 2014 $9.59N/A (N/A/78%)0 .. 20,0000%00:00 (00:00)
142 Orbital Gear Aug 7, 2014 $9.99N/A (N/A/59%)200,000 .. 500,0000%00:00 (00:00)
143 Will Fight for Food: Super Actual Sellout: Game of the Hour Apr 22, 2015 $4.99N/A (N/A)0 .. 20,0000%00:00 (00:00)
144 Rooks Keep Dec 5, 2014 $3.99N/A (N/A)0 .. 20,0000%00:00 (00:00)
145 Nux Aug 15, 2014 $0.69N/A (N/A)100,000 .. 200,0000%00:00 (00:00)
146 The Few Jun 18, 2014 $7.99N/A (N/A)50,000 .. 100,0000%00:00 (00:00)
147 Gold Rush! Classic Dec 23, 1988 $2.99N/A (N/A)200,000 .. 500,0000%00:00 (00:00)
148 Psichodelya Aug 8, 2014 N/AN/A (N/A)50,000 .. 100,0000%00:00 (00:00)
149 The Nightmare Cooperative Jul 16, 2014 $4.99N/A (N/A)50,000 .. 100,0000%00:00 (00:00)
150 Momodora III Jul 1, 2014 $1.99N/A (N/A)50,000 .. 100,0000%00:00 (00:00)
151 The Way May 20, 2016 $14.99N/A (N/A/67%)100,000 .. 200,0000%00:00 (00:00)
152 Aeon Command Jul 3, 2014 $2.99N/A (N/A)20,000 .. 50,0000%00:00 (00:00)
153 The Stalin Subway: Red Veil Oct 24, 2014 $0.5N/A (N/A)50,000 .. 100,0000%00:00 (00:00)
154 Blue Estate The Game Apr 8, 2015 $12.99N/A (N/A/59%)50,000 .. 100,0000%00:00 (00:00)
155 Knightmare Tower Jun 16, 2014 $3.99N/A (N/A)0 .. 20,0000%00:00 (00:00)
156 Conflict Desert Storm Sep 13, 2002 $6.99N/A (N/A/56%)50,000 .. 100,0000%00:00 (00:00)
157 Rise of Venice Sep 27, 2013 $19.99N/A (N/A/66%)50,000 .. 100,0000%00:00 (00:00)
158 Conquest of Elysium 3 Oct 24, 2012 $9.99N/A (N/A)50,000 .. 100,0000%00:00 (00:00)
159 Sang-Froid - Tales of Werewolves Apr 5, 2013 FreeN/A (N/A/79%)200,000 .. 500,0000%00:00 (00:00)
160 Call of Duty: Black Ops - Mac Edition Sep 27, 2012 N/AN/A (N/A)50,000 .. 100,0000%00:00 (00:00)
161 Scourge: Outbreak Apr 2, 2014 $5.99N/A (N/A)100,000 .. 200,0000%00:00 (00:00)
162 Painkiller Hell & Damnation Oct 31, 2012 $19.99N/A (N/A/64%)200,000 .. 500,0000%00:00 (00:00)
163 March of the Eagles Feb 18, 2013 $19.99N/A (N/A/71%)50,000 .. 100,0000%00:00 (00:00)
164 Zeno Clash 2 Apr 30, 2013 $14.99N/A (N/A)200,000 .. 500,0000%00:00 (00:00)
165 Skulls of the Shogun Jul 29, 2013 $9.99N/A (N/A/72%)100,000 .. 200,0000%00:00 (00:00)
166 Jagged Alliance 2 - Wildfire Mar 8, 2004 $6.99N/A (N/A)500,000 .. 1,000,0001.06%04:08 (01:22)
167 ShootMania Storm Apr 10, 2013 $19.99N/A (N/A/76%)50,000 .. 100,0000%00:00 (00:00)
168 Gemini Wars Nov 2, 2012 $14.99N/A (N/A/53%)20,000 .. 50,0000%00:00 (00:00)
169 Armada 2526 Gold Edition Feb 28, 2013 $19.99N/A (N/A/66%)50,000 .. 100,0000%00:00 (00:00)
170 Eufloria HD Oct 14, 2014 $3.74N/A (N/A)100,000 .. 200,0000%00:00 (00:00)
171 Check vs Mate Aug 16, 2012 $19.99N/A (N/A/69%)20,000 .. 50,0000%00:00 (00:00)
172 Arma Tactics Oct 1, 2013 $8.99N/A (N/A/47%)200,000 .. 500,0000%00:00 (00:00)
173 Vampire of the Sands Jul 17, 2015 $4.99N/A (N/A)20,000 .. 50,0000%00:00 (00:00)
174 Little Big Adventure 2 Oct 20, 2015 $3.99N/A (N/A)50,000 .. 100,0000%00:00 (00:00)
175 Vendetta - Curse of Raven's Cry Nov 20, 2015 $29.99N/A (N/A)500,000 .. 1,000,0000%00:00 (00:00)
176 Reverse Crawl Sep 24, 2015 $5.99N/A (N/A)50,000 .. 100,0000%00:00 (00:00)
177 Cashtronauts Sep 1, 2016 $2.99N/A (N/A)0 .. 20,0000%00:00 (00:00)
178 The Juicer Sep 6, 2012 $0.99N/A (N/A)50,000 .. 100,0000%00:00 (00:00)
179 Mold on Pizza Sep 25, 2015 $5.99N/A (N/A)20,000 .. 50,0000%00:00 (00:00)
180 Sky To Fly: Faster Than Wind Mar 25, 2016 $3.99N/A (N/A)20,000 .. 50,0000%00:00 (00:00)
181 Tic-Toc-Tower Sep 28, 2015 $2.99N/A (N/A)0 .. 20,0000%00:00 (00:00)
182 The Political Machine 2016 Feb 4, 2016 N/AN/A (N/A)50,000 .. 100,0000%00:00 (00:00)
183 Rubber and Lead Sep 4, 2015 $4.99N/A (N/A)20,000 .. 50,0000%00:00 (00:00)
184 Crush Your Enemies Jul 13, 2016 $9.99N/A (N/A/63%)20,000 .. 50,0000%00:00 (00:00)
185 Anarcute Jul 12, 2016 $14.99N/A (N/A/79%)20,000 .. 50,0000%00:00 (00:00)
186 Lethe - Episode One Aug 1, 2016 $14.99N/A (N/A)0 .. 20,0000%00:00 (00:00)
187 Toy Odyssey: The Lost and Found Sep 20, 2016 $14.99N/A (N/A/66%)20,000 .. 50,0000%00:00 (00:00)
188 Knight Adventure Oct 15, 2015 $0.99N/A (N/A)50,000 .. 100,0000%00:00 (00:00)
189 Miracle Fly Oct 26, 2015 $7.99N/A (N/A)20,000 .. 50,0000%00:00 (00:00)
190 Platypus II Mar 17, 2007 $6.99N/A (N/A)200,000 .. 500,0000%00:00 (00:00)
191 Spirits of Xanadu Mar 26, 2015 $4.99N/A (N/A)0 .. 20,0000%00:00 (00:00)
192 Gold Rush! Anniversary Nov 7, 2014 $2.99N/A (N/A)50,000 .. 100,0000%00:00 (00:00)
193 Ys VI: The Ark of Napishtim Apr 28, 2015 $19.99N/A (N/A/76%)50,000 .. 100,0000%00:00 (00:00)
194 Deadlings: Rotten Edition Nov 11, 2014 $3.99N/A (N/A)50,000 .. 100,0000%00:00 (00:00)
195 Khet 2.0 Oct 1, 2014 $2.49N/A (N/A)50,000 .. 100,0000%00:00 (00:00)
196 Toren May 11, 2015 $9.99N/A (N/A/57%)100,000 .. 200,0000%00:00 (00:00)
197 Foresight Nov 28, 2014 $4.99N/A (N/A)0 .. 20,0000%00:00 (00:00)
198 Wickland Nov 14, 2014 $0.99N/A (N/A)50,000 .. 100,0000%00:00 (00:00)
199 A.R.E.S. Extinction Agenda EX Oct 3, 2014 $9.99N/A (N/A)0 .. 20,0000%00:00 (00:00)
200 War, the Game Jan 12, 2015 $6.99N/A (N/A/65%)20,000 .. 50,0000%00:00 (00:00)
201 Stonerid Aug 15, 2014 $0.49N/A (N/A)20,000 .. 50,0000%00:00 (00:00)
202 Run or Die Dec 11, 2014 $4.99N/A (N/A)20,000 .. 50,0000%00:00 (00:00)
203 Defenders of Time Nov 4, 2014 N/AN/A (N/A/55%)0 .. 20,0000%00:00 (00:00)
204 Hail to the King: Deathbat Oct 30, 2014 $5.99N/A (N/A)0 .. 20,0000%00:00 (00:00)
205 Hunters Of The Dead Sep 4, 2014 $4.99N/A (N/A)0 .. 20,0000%00:00 (00:00)
206 Super Trench Attack! Jul 24, 2014 $4.99N/A (N/A)50,000 .. 100,0000%00:00 (00:00)
207 Horizon Feb 6, 2014 $29.99N/A (N/A/58%)50,000 .. 100,0000%00:00 (00:00)
208 Divinity: Dragon Commander Aug 6, 2013 $39.99N/A (N/A)200,000 .. 500,0007.69%00:12 (00:04)
209 Anomaly 2 May 15, 2013 $14.99N/A (N/A/77%)200,000 .. 500,0000%00:00 (00:00)
210 Sid Meier’s Ace Patrol Aug 27, 2013 $4.99N/A (N/A)200,000 .. 500,0000%00:00 (00:00)
211 Fist Puncher Jun 21, 2013 $9.99N/A (N/A/73%)20,000 .. 50,0000%00:00 (00:00)
212 VelocityUltra Dec 12, 2013 $9.99N/A (N/A)20,000 .. 50,0000%00:00 (00:00)
213 Skyward Collapse May 23, 2013 $4.99N/A (N/A/64%)100,000 .. 200,0000%00:00 (00:00)
214 ENSLAVED: Odyssey to the West Premium Edition Oct 24, 2013 $19.99N/A (N/A/70%)200,000 .. 500,0000%00:00 (00:00)
215 7 Grand Steps: What Ancients Begat Jun 7, 2013 $19.99N/A (N/A)20,000 .. 50,0000%00:00 (00:00)
216 Dominions 3: The Awakening Sep 10, 2013 $19.99N/A (N/A/82%)20,000 .. 50,0000%00:00 (00:00)
217 Bleed Jul 3, 2013 $4.99N/A (N/A)100,000 .. 200,0000%00:00 (00:00)
218 Livelock Aug 30, 2016 $9.99N/A (N/A/73%)50,000 .. 100,0000%00:00 (00:00)
219 Ittle Dew Jul 23, 2013 $9.99N/A (N/A/67%)100,000 .. 200,0000%00:00 (00:00)
220 Chainsaw Warrior Oct 7, 2013 $4.99N/A (N/A)20,000 .. 50,0000%00:00 (00:00)
221 CastleStorm Jul 29, 2013 $9.99N/A (N/A/73%)100,000 .. 200,0000%00:00 (00:00)
222 Anodyne Mar 22, 2013 $9.99N/A (N/A/75%)100,000 .. 200,0000%00:00 (00:00)
223 Guncraft Aug 9, 2013 $14.99N/A (N/A/73%)100,000 .. 200,0000%00:00 (00:00)
224 Angry Video Game Nerd II: ASSimilation Mar 29, 2016 $9.99N/A (N/A)20,000 .. 50,0000%00:00 (00:00)
225 Tom Clancy's EndWar Feb 25, 2009 $9.99N/A (N/A/68%)100,000 .. 200,0000%00:00 (00:00)
226 1775: Rebellion Sep 29, 2016 $24.99N/A (N/A)0 .. 20,0000%00:00 (00:00)
227 BloodRayne Sep 9, 2003 $9.99N/A (N/A/65%)50,000 .. 100,0000%00:00 (00:00)
228 Death by Game Show Jan 22, 2016 $1.99N/A (N/A)0 .. 20,0000%00:00 (00:00)
229 Spectromancer Oct 15, 2008 $9.99N/A (N/A)20,000 .. 50,0000%00:00 (00:00)
230 Megamagic: Wizards of the Neon Age Apr 20, 2016 $9.99N/A (N/A/67%)20,000 .. 50,0000%00:00 (00:00)
231 Civilization IV: Warlords Jul 24, 2006 $4.99N/A (N/A/84%)1,000,000 .. 2,000,0000%00:00 (00:00)
232 Galaxy Admirals Jan 17, 2017 $1.99N/A (N/A)100,000 .. 200,0000%00:00 (00:00)
233 King Arthur - The Role-playing Wargame Nov 24, 2009 $9.99N/A (N/A)200,000 .. 500,0000%00:00 (00:00)
234 Neon Chrome Apr 28, 2016 $14.99N/A (N/A/74%)200,000 .. 500,0000%00:00 (00:00)
235 Lost Planet: Extreme Condition Jun 26, 2007 $14.99N/A (N/A/66%)200,000 .. 500,0000%00:00 (00:00)
236 Corgi Warlock Dec 3, 2015 $1.99N/A (N/A)20,000 .. 50,0000%00:00 (00:00)
237 Caster Mar 19, 2009 $1.99N/A (N/A)200,000 .. 500,0000%00:00 (00:00)
238 Super Helmets on Fire DX Ultra Edition Plus Alpha Feb 15, 2016 FreeN/A (N/A)0 .. 20,0000%00:00 (00:00)
239 Warhammer 40,000: Dawn of War – Winter Assault Jan 1, 2006 $12.99N/A (N/A)500,000 .. 1,000,0000%00:00 (00:00)
240 Monster Monpiece Mar 14, 2017 $9.99N/A (N/A)20,000 .. 50,0000%00:00 (00:00)
241 Delta Force 2 Oct 31, 1999 $4.99N/A (N/A)100,000 .. 200,0000%00:00 (00:00)
242 Earn to Die 2 May 5, 2016 $4.99N/A (N/A)20,000 .. 50,0000%00:00 (00:00)
243 Supreme Commander Feb 20, 2007 $12.99N/A (N/A/86%)1,000,000 .. 2,000,0002.08%02:57 (00:59)
244 Goblin Defenders: Steel‘n’ Wood Aug 21, 2013 $2.99N/A (N/A)0 .. 20,0000%00:00 (00:00)
245 Disciples III - Renaissance Steam Special Edition Jul 16, 2010 $14.99N/A (N/A/56%)200,000 .. 500,0000%00:00 (00:00)
246 Phoning Home Feb 7, 2017 $19.99N/A (N/A/61%)20,000 .. 50,0000%00:00 (00:00)
247 Heroes of Might & Magic V: Hammers of Fate Nov 14, 2006 $9.99N/A (N/A/66%)50,000 .. 100,0000%00:00 (00:00)
248 Vector Strain Dec 9, 2015 $4.99N/A (N/A)20,000 .. 50,0000%00:00 (00:00)
249 Chaser Aug 22, 2003 $4.99N/A (N/A/66%)100,000 .. 200,0000%00:00 (00:00)
250 A Blind Legend Apr 7, 2016 $6.99N/A (N/A)0 .. 20,0000%00:00 (00:00)
251 Nuclear Dawn Sep 26, 2011 $9.99N/A (N/A/71%)200,000 .. 500,0000%00:00 (00:00)
252 Into the Void Dec 4, 2015 $1.99N/A (N/A)20,000 .. 50,0000%00:00 (00:00)
253 The Kings' Crusade Oct 8, 2010 $9.99N/A (N/A/71%)50,000 .. 100,0000%00:00 (00:00)
254 Star Realms Mar 8, 2016 FreeN/A (N/A)100,000 .. 200,00020%00:22 (00:07)
255 Starscape Mar 27, 2003 $7.99N/A (N/A)20,000 .. 50,0000%00:00 (00:00)
256 The Legend of Dark Witch Dec 1, 2015 $4.99N/A (N/A)20,000 .. 50,0000%00:00 (00:00)
257 Advent Rising Aug 9, 2005 $9.99N/A (N/A/70%)50,000 .. 100,0000%00:00 (00:00)
258 Bet On Soldier Dec 5, 2014 $1.59N/A (N/A)100,000 .. 200,0000%00:00 (00:00)
259 7th Legion Jan 1, 1997 $6.99N/A (N/A)0 .. 20,0000%00:00 (00:00)
260 Bloodsports.TV Mar 30, 2015 $9.99N/A (N/A/69%)100,000 .. 200,0000%00:00 (00:00)
261 Frozen Synapse Prime Nov 14, 2014 $2.49N/A (N/A/83%)100,000 .. 200,0000%00:00 (00:00)
262 Outcast 1.1 Dec 18, 2014 $5.99N/A (N/A)50,000 .. 100,0000%00:00 (00:00)
263 Robotex Nov 18, 2014 $4.99N/A (N/A)200,000 .. 500,0000%00:00 (00:00)
264 Deadnaut Dec 8, 2014 $4.99N/A (N/A)20,000 .. 50,0000%00:00 (00:00)
265 Survivor Squad: Gauntlets Nov 16, 2015 $4.99N/A (N/A)20,000 .. 50,0000%00:00 (00:00)
266 Strategy & Tactics: Wargame Collection Apr 22, 2016 $9.99N/A (N/A)50,000 .. 100,0000%00:00 (00:00)
267 PixelJunk Shooter Ultimate Oct 21, 2015 $9.99N/A (N/A)20,000 .. 50,0000%00:00 (00:00)
268 Death Ray Manta SE Sep 17, 2015 $1.99N/A (N/A)20,000 .. 50,0000%00:00 (00:00)
269 Battle Fleet 2 Nov 20, 2014 $4.49N/A (N/A)20,000 .. 50,0000%00:00 (00:00)
270 Headlander Jul 25, 2016 $19.99N/A (N/A/74%)100,000 .. 200,0000%00:00 (00:00)
271 Kaiju-A-GoGo Apr 23, 2015 $9.99N/A (N/A)20,000 .. 50,0000%00:00 (00:00)
272 Colonial Conquest Jul 28, 2015 $9.99N/A (N/A)20,000 .. 50,0000%00:00 (00:00)
273 Fortified Feb 3, 2016 $14.99N/A (N/A)500,000 .. 1,000,0000%00:00 (00:00)
274 Near Death Aug 2, 2016 $7.99N/A (N/A/70%)20,000 .. 50,0000%00:00 (00:00)
275 Anomaly Warzone Earth Mobile Campaign Nov 6, 2013 $4.99N/A (N/A)100,000 .. 200,0000%00:00 (00:00)
276 Guns n Zombies Oct 30, 2014 $1.59N/A (N/A)100,000 .. 200,0000%00:00 (00:00)
277 YAIBA: NINJA GAIDEN Z Mar 21, 2014 $29.99N/A (N/A/49%)20,000 .. 50,0000%00:00 (00:00)
278 Major Mayhem Feb 24, 2014 $4.99N/A (N/A)20,000 .. 50,0000%00:00 (00:00)
279 Zombie Tycoon 2: Brainhov's Revenge Dec 9, 2013 $4.99N/A (N/A)50,000 .. 100,0000%00:00 (00:00)
280 Platformines Mar 28, 2014 $9.99N/A (N/A/67%)50,000 .. 100,0000%00:00 (00:00)
281 MoonBase Commander Aug 13, 2002 $5.99N/A (N/A/77%)20,000 .. 50,0000%00:00 (00:00)
282 Deadly 30 Jan 8, 2014 $4.99N/A (N/A)100,000 .. 200,0000%00:00 (00:00)
283 PixelJunk Shooter Nov 11, 2013 $8.99N/A (N/A/73%)100,000 .. 200,0000%00:00 (00:00)
284 Ground Pounders Jul 15, 2014 $4.99N/A (N/A)0 .. 20,0000%00:00 (00:00)
285 Bedlam Oct 13, 2015 N/AN/A (N/A/54%)100,000 .. 200,0000%00:00 (00:00)
286 Gun Metal Sep 23, 2003 $2.99N/A (N/A)200,000 .. 500,0000%00:00 (00:00)
287 Last Knight: Rogue Rider Edition Oct 3, 2014 $1.59N/A (N/A)20,000 .. 50,0000%00:00 (00:00)
288 Antisquad Oct 31, 2014 $5.99N/A (N/A)50,000 .. 100,0000%00:00 (00:00)
289 Pixel Boy and the Ever Expanding Dungeon May 30, 2014 $0.99N/A (N/A)20,000 .. 50,0000%00:00 (00:00)
290 Master Reboot Oct 29, 2013 $12.99N/A (N/A/59%)50,000 .. 100,0000%00:00 (00:00)
291 SPACECOM Sep 17, 2014 $9.99N/A (N/A/68%)50,000 .. 100,0000%00:00 (00:00)
292 Control Craft 2 Feb 15, 2016 $1.99N/A (N/A)20,000 .. 50,0000%00:00 (00:00)
293 Magic Quest May 6, 2016 $1.99N/A (N/A)50,000 .. 100,0000%00:00 (00:00)
294 Story Of the Survivor Feb 16, 2016 $4.99N/A (N/A)50,000 .. 100,0000%00:00 (00:00)
295 Defend Your Crypt Jul 21, 2016 $2.99N/A (N/A)0 .. 20,0000%00:00 (00:00)
296 Age of Gladiators Feb 25, 2016 $9.99N/A (N/A)100,000 .. 200,0000%00:00 (00:00)
297 Codex of Victory Mar 16, 2017 $14.99N/A (N/A)20,000 .. 50,0000%00:00 (00:00)
298 Revenge of Roger Rouge Apr 22, 2016 $2.99N/A (N/A)20,000 .. 50,0000%00:00 (00:00)
299 Rocketbirds 2 Evolution Jan 26, 2017 $9.99N/A (N/A)20,000 .. 50,0000%00:00 (00:00)
300 Onechanbara Z2: Chaos Jun 2, 2016 $39.99N/A (N/A)20,000 .. 50,0000%00:00 (00:00)
301 Purgatory Jun 22, 2016 $0.99N/A (N/A)50,000 .. 100,0000%00:00 (00:00)
302 Fatal Fight Jun 10, 2016 $2.99N/A (N/A)0 .. 20,0000%00:00 (00:00)
303 Slash or Die Jun 3, 2016 $2.99N/A (N/A)20,000 .. 50,0000%00:00 (00:00)
304 Assault on Arnhem Mar 11, 2016 $9.99N/A (N/A)0 .. 20,0000%00:00 (00:00)
305 System Crash Aug 1, 2016 $14.99N/A (N/A)0 .. 20,0000%00:00 (00:00)
306 Mad Bullets Jun 10, 2016 $2.99N/A (N/A)0 .. 20,0000%00:00 (00:00)
307 VRZ: Torment May 18, 2017 $9.99N/A (N/A)0 .. 20,0000%00:00 (00:00)
308 Blasting Agent: Ultimate Edition Aug 17, 2016 $2.99N/A (N/A)0 .. 20,0000%00:00 (00:00)

Tags over time:

Access restricted.

This feature is only available to users with special access rights. Sorry.

If you want to proceed, you need to register or log in first and then back Steam Spy on Patreon. Look for Indie or Pro pledge.

Don't forget to use the same email as on Steam Spy!

Owners of this game also own:

Access restricted.

This feature is only available to users with special access rights. Sorry.

If you want to proceed, you need to register or log in first and then back Steam Spy on Patreon. Look for Indie or Pro pledge.

Don't forget to use the same email as on Steam Spy!

Playtime distribution:

Access restricted.

This feature is only available to users with special access rights. Sorry.

If you want to proceed, you need to register or log in first and then back Steam Spy on Patreon. Look for Indie or Pro pledge.

Don't forget to use the same email as on Steam Spy!

Playtime (2 weeks):

Access restricted.

This feature is only available to users with special access rights. Sorry.

If you want to proceed, you need to register or log in first and then back Steam Spy on Patreon. Look for Indie or Pro pledge.

Don't forget to use the same email as on Steam Spy!

User reviews:

Login required.

Please register or log in to see this information.